Header for Extended Forecast Station List Page

Search by: ID | Name | Date | Parm | Value | Avg | % Avg
Sort by: ID | Name | Date | Parm | Value | Avg | % Avg

Enter search or view all records.

Click on id for station plot
#IDNameDateParmValueAvg% Avg
0LEOI1KOOTENAI-AT LEONIA10-22-2018DISCHARGE (KAF)24451513162
1FCFM8NF FLATHEAD-NEAR COLUMBIA FALLS10-22-2018DISCHARGE (KAF)10518955
2WGCM8MF FLATHEAD-NEAR WEST GLACIER10-22-2018DISCHARGE (KAF)10516663
3CFMM8FLATHEAD-AT COLUMBIA FALLS10-22-2018DISCHARGE (KAF)884117575
4DLGM8CLARK FORK-AT DEER LODGE10-22-2018DISCHARGE (KAF)7362117
5DRMM8CLARK FORK-NR DRUMMOND10-22-2018DISCHARGE (KAF)153MM
6RCCM8ROCK CREEK-NEAR CLINTON10-22-2018DISCHARGE (KAF)6148127
7BONM8BLACKFOOT-NEAR BONNER10-22-2018DISCHARGE (KAF)138134103
8ABOM8CLARK FORK-ABOVE MISSOULA10-22-2018DISCHARGE (KAF)367341108
9BITM8BITTERROOT-NEAR MISSOULA10-22-2018DISCHARGE (KAF)15922471
10BELM8CLARK FORK-BELOW MISSOULA10-22-2018DISCHARGE (KAF)52957093
11STRM8ST. REGIS-NEAR ST. REGIS10-22-2018DISCHARGE (KAF)183846
12SRGM8CLARK FORK-AT ST REGIS10-22-2018DISCHARGE (KAF)67274690
13PRTI1PRIEST-NEAR PRIEST RIVER10-22-2018DISCHARGE (KAF)9723441
14SPOW1SPOKANE-AT SPOKANE10-22-2018DISCHARGE (KAF)328MM
15SATI1ST MARIES-NEAR SANTA10-22-2018DISCHARGE (KAF)143442
16CIBW1COLUMBIA-AT INTL BOUNDARY10-22-2018DISCHARGE (KAF)18727MM
17LAUW1KETTLE-AT LAURIER10-22-2018DISCHARGE (KAF)8012564
18TONW1OKANOGAN-NEAR TONASKET10-22-2018DISCHARGE (KAF)22328179
19PATW1METHOW-NEAR PATEROS10-22-2018DISCHARGE (KAF)979899
20ARDW1ENTIAT-NEAR ARDENVOIR10-22-2018DISCHARGE (KAF)222298
21PESW1WENATCHEE-AT PESHASTIN10-22-2018DISCHARGE (KAF)17729959
22EASW1YAKIMA-AT EASTON10-22-2018DISCHARGE (KAF)586885
23TNAW1TEANAWAY-BELOW FORKS10-22-2018DISCHARGE (KAF)104025
24UMTW1YAKIMA-AT UMTANUM10-22-2018DISCHARGE (KAF)23424795
25CLFW1NACHES-NEAR CLIFFDEL10-22-2018DISCHARGE (KAF)5710554
26NACW1NACHES-NEAR NACHES10-22-2018DISCHARGE (KAF)397949
27PARW1YAKIMA-NEAR PARKER10-22-2018DISCHARGE (KAF)36647577
28KIOW1YAKIMA-AT KIONA10-22-2018DISCHARGE (KAF)57570482
29CHEI1FALL RIVER-NEAR CHESTER10-22-2018DISCHARGE (KAF)113112100
30ANTI1HENRYS FORK-AT ST. ANTHONY10-22-2018DISCHARGE (KAF)349341102
31TEAI1TETON-NEAR ST. ANTHONY10-22-2018DISCHARGE (KAF)9110389
32REXI1HENRYS FORK-AT REXBURG10-22-2018DISCHARGE (KAF)437430102
33JKSW4SNAKE-NEAR JACKSON10-22-2018DISCHARGE (KAF)327308106
34ALPW4SNAKE-NEAR ALPINE10-22-2018DISCHARGE (KAF)38338699
35HEII1SNAKE-NEAR HEISE10-22-2018DISCHARGE (KAF)36158662
36SIFI1SNAKE-AB EAGLE ROCK NR IDAHO FALLS10-22-2018DISCHARGE (KAF)63181677
37SHYI1SNAKE-NEAR SHELLEY10-22-2018DISCHARGE (KAF)62680478
38SNAI1SNAKE-AT BLACKFOOT10-22-2018DISCHARGE (KAF)53973473
39BFTI1SNAKE-NEAR BLACKFOOT10-22-2018DISCHARGE (KAF)55478870
40PIHI1PORTNEUF-AT POCATELLO10-22-2018DISCHARGE (KAF)586392
41MILI1SNAKE-AT MILNER10-22-2018DISCHARGE (KAF)6357111
42HOTI1BRUNEAU-NEAR HOT SPRINGS10-22-2018DISCHARGE (KAF)172862
43SWAI1SNAKE-BELOW SWAN FALLS10-22-2018DISCHARGE (KAF)1804256070
44HWRI1BIG LOST-AT HOWELL RANCH NEAR CHILLY10-22-2018DISCHARGE (KAF)2221104
45HALI1BIG WOOD-AT HAILEY10-22-2018DISCHARGE (KAF)3939101
46BIGI1BOISE-AT GLENWOOD BRIDGE10-22-2018DISCHARGE (KAF)5536153
47PARI1BOISE-NEAR PARMA10-22-2018DISCHARGE (KAF)18520989
48VALO3MALHEUR-NEAR VALE10-22-2018DISCHARGE (KAF)202773
49EMMI1PAYETTE-NEAR EMMETT10-22-2018DISCHARGE (KAF)28135080
50WSRI1WEISER-NEAR WEISER10-22-2018DISCHARGE (KAF)428152
51WEII1SNAKE-AT WEISER10-22-2018DISCHARGE (KAF)2590363271
52WHBI1SALMON-AT WHITEBIRD10-22-2018DISCHARGE (KAF)1045106798
53TRYO3GRANDE RONDE-TROY10-22-2018DISCHARGE (KAF)18930462
54ANAW1SNAKE-NEAR ANATONE10-22-2018DISCHARGE (KAF)4011569870
55ORFI1CLEARWATER-AT OROFINO10-22-2018DISCHARGE (KAF)31867747
56SPDI1CLEARWATER-AT SPALDING10-22-2018DISCHARGE (KAF)783161548
57TCHW1WALLA WALLA-NEAR TOUCHET10-22-2018DISCHARGE (KAF)9112076
58GIBO3UMATILLA-NEAR GIBBON10-22-2018DISCHARGE (KAF)303488
59PDTO3UMATILLA-AT PENDLETON10-22-2018DISCHARGE (KAF)798099
60MYKO3MCKAY CREEK-NEAR PILOT ROCK10-22-2018DISCHARGE (KAF)1817104
61UMAO3UMATILLA-NEAR UMATILLA10-22-2018DISCHARGE (KAF)11484135
62MONO3NF JOHN DAY-AT MONUMENT10-22-2018DISCHARGE (KAF)6311156
63SERO3JOHN DAY-AT SERVICE CK10-22-2018DISCHARGE (KAF)13320465
64MODO3DESCHUTES-AT MOODY NR BIGGS10-22-2018DISCHARGE (KAF)1329139795
65PITW1KLICKITAT-NEAR PITT10-22-2018DISCHARGE (KAF)22128378
66HODO3HOOD-NEAR TUCKER BRIDGE10-22-2018DISCHARGE (KAF)232232100
67UNDW1WHITE SALMON-NEAR UNDERWOOD10-22-2018DISCHARGE (KAF)23524098
68LYDM8KOOTENAI-LIBBY DAM10-22-2018INFLOW (KAF)74888485
69HHWM8SF FLATHEAD-HUNGRY HORSE DAM10-22-2018INFLOW (KAF)13224354
70KERM8FLATHEAD-KERR DAM10-22-2018INFLOW (KAF)986149566
71NOXM8CLARK FORK-NOXON RAPIDS DAM10-22-2018INFLOW (KAF)2623351375
72CABI1CLARK FORK-CABINET GORGE DAM10-22-2018INFLOW (KAF)2881366979
73ALFW1PEND OREILLE-ALBENI FALLS DAM10-22-2018INFLOW (KAF)2968428069
74COEI1COEUR D ALENE-COEUR D ALENE LAKE10-22-2018INFLOW (KAF)22869933
75LLKW1SPOKANE-AT LONGLAKE10-22-2018INFLOW (KAF)515116444
76GCDW1COLUMBIA-GRAND COULEE DAM10-22-2018INFLOW (KAF)1940117239113
77CHJW1COLUMBIA-CHIEF JOSEPH DAM10-22-2018INFLOW (KAF)204952145296
78WELW1COLUMBIA-WELLS DAM10-22-2018INFLOW (KAF)208152183195
79CHDW1CHELAN-LAKE CHELAN DAM10-22-2018INFLOW (KAF)15615899
80RRHW1COLUMBIA-ROCKY REACH DAM10-22-2018INFLOW (KAF)214042232996
81WANW1COLUMBIA-WANAPUM DAM10-22-2018INFLOW (KAF)2158619761109
82PRWW1COLUMBIA-PRIEST RAPIDS DAM10-22-2018INFLOW (KAF)2158420109107
83KEDW1YAKIMA-KEECHELUS LAKE10-22-2018INFLOW (KAF)335263
84KADW1KACHESS-KACHESS DAM10-22-2018INFLOW (KAF)274660
85CLUW1CLE ELUM-CLE ELUM LAKE10-22-2018INFLOW (KAF)5410452
86BUDW1BUMPING-BUMPING LAKE DAM10-22-2018INFLOW (KAF)163643
87RILW1TIETON-RIMROCK LAKE NEAR RIMROCK10-22-2018INFLOW (KAF)356753
88IPDI1HENRYS FORK-ISLAND PARK DAM10-22-2018INFLOW (KAF)8211671
89JLKW4SNAKE-JACKSON LAKE AT DAM10-22-2018INFLOW (KAF)10411392
90PLDI1SF SNAKE-PALISADES DAM10-22-2018INFLOW (KAF)60362497
91RIDI1WILLOW CREEK-RIRIE DAM10-22-2018INFLOW (KAF)8899
92AFRI1SNAKE-AMERICAN FALLS RESERVOIR10-22-2018INFLOW (KAF)1212147582
93MACI1BIG LOST-MACKAY RESERVOIR NEAR MACKAY10-22-2018INFLOW (KAF)385720
94MAGI1BIG WOOD-MAGIC DAM10-22-2018INFLOW (KAF)252790
95LWRI1LITTLE WOOD-LITTLE WOOD DAM10-22-2018INFLOW (KAF)121580
96OWYO3OWYHEE-OWYHEE DAM10-22-2018INFLOW (KAF)648476
97ARAI1SF BOISE-ANDERSON RANCH DAM10-22-2018INFLOW (KAF)667589
98LUCI1BOISE-LUCKY PEAK DAM10-22-2018INFLOW (KAF)43MM
99WRMO3MALHEUR-WARM SPRINGS DAM10-22-2018INFLOW (KAF)172375
100BERO3MALHEUR-AGENCY VALLEY DAM10-22-2018INFLOW (KAF)111667
101BULO3BULLY CREEK-BULLY CREEK DAM10-22-2018INFLOW (KAF)33104
102CSDI1NF PAYETTE-CASCADE DAM10-22-2018INFLOW (KAF)749478
103DEDI1DEADWOOD-NEAR LOWMAN10-22-2018INFLOW (KAF)151982
104BRNI1SNAKE-BROWNLEE DAM10-22-2018INFLOW (KAF)2766374274
105DWRI1NF CLEARWATER-DWORSHAK DAM10-22-2018INFLOW (KAF)25252148
106LGDW1SNAKE-LOWER GRANITE DAM10-22-2018INFLOW (KAF)4794752064
107LGSW1SNAKE-LITTLE GOOSE DAM10-22-2018INFLOW (KAF)4794757063
108LMNW1SNAKE-LOWER MONUMENTAL DAM10-22-2018INFLOW (KAF)4840766163
109IHDW1SNAKE-ICE HARBOR DAM10-22-2018INFLOW (KAF)4840757664
110MCDW1COLUMBIA-MCNARY DAM10-22-2018INFLOW (KAF)270472968491
111JDAO3COLUMBIA-JOHN DAY DAM10-22-2018INFLOW (KAF)282063067892
112TDAO3COLUMBIA-THE DALLES DAM10-22-2018INFLOW (KAF)288723435584
113BONO3COLUMBIA-BONNEVILLE DAM10-22-2018INFLOW (KAF)295433655281
114HOPI1PEND OREILLE-PEND OREILLE LAKE NR HOPE10-22-2018LAKE ELEVATION (FT)MMM
115BFEI1KOOTENAI-AT BONNERS FERRY10-22-2018STAGE (FT)MMM
116SJMI1ST JOE-AT ST MARIES10-22-2018STAGE (FT)MMM